STARLINK-32143, 60296

Orbit data source: Space-Track

STARLINK-32143, 60296 is a payload satellite owned by SpaceX/Seattle (US) in LEO that was launched on Sun, 28 Jul 2024 UTC via an FALCON 9 launch vehicle from the Air Force Eastern Test Range (AFETR). Payload-class satellites include a variety of spacecraft equipped with specific instruments for various scientific and technological missions. These include communications satellites like Starlink; space stations such as the ISS; scientific satellites like the Hubble; Earth observation satellites from companies like Planet Labs, Umbra, and HawkEye 360; GPS; miniature CubeSats for education and research; and military/defense satellites.

Loading next visibility...
Identifier
60296, 2024-132U
Orbit
LEO
Country
Flag of USUS
Related business
Manufacturer
SpaceX/Seattle
Mission
Operational Commercial Communications
Bus & Motor
STARLINK V2M, Unknown motor
Mass
730 kg wet, ~700 kg dry
Launch date (UTC)
2024-07-28 (2 years ago)
Launch vehicle
FALCON 9
Launch site
Air Force Eastern Test Range (AFETR)
Object type
Payload
Rocket body
Debris
Shape & HBR
Box + 2 Pan, 17.7 m
Radar Cross Section
33.884 m², Large (>1 m²)

Expand to show TLE details & history
Last TLE update: 6 hours ago

TLE from 6 hours ago
0 STARLINK-32143
1 60296U 24132U   26132.13951362  .00001175  00000-0  49644-4 0  9994
2 60296  53.1604 117.7978 0001245  95.4952 264.6191 15.31685885101270
Epoch: 2026-05-12T03:20Z
TLE epoch observation values (Epoch: 2026-05-12T03:20:53.976Z)
Latitude
-0.00007°
Longitude
-162.34533°
Altitude
471.762 km
Speed
7.631 km/s
True Right ascension
07h 51m 11s
True Declination
0° 00' 00"
Sunlit
Object was in daylight at epoch
Visualization orbit readout
Latitude
Unknown
Longitude
Unknown
Altitude
Unknown
Speed
Unknown
Apparent Right ascension
Unknown
Apparent Declination
Unknown
Sunlit
N/A
Visualization observer readout
Local Sidereal Time
17:15:12
Azimuth
Unknown
Elevation
Unknown
Doppler factor
Unknown
Orbital elements
Apogee altitude
471.891 km
Perigee altitude
470.186 km
Semi-major axis
6,849.176 km
Eccentricity
0.00012
Inclination
53.1604°
RAAN
117.7978°
Arg. of periapsis
95.4952°
True anomaly
264.6049°
Mean anomaly
264.6191°
Eccentric anomaly
264.612°
Mean motion
3.829 °/min
Orbital period
94.02 mins
BSTAR
0.000049644
Loading maneuver chart data...
Computing Atmospheric mass density...
Loading historical data...
Loading historical data...
Loading historical data...
Loading historical data...
Loading historical data...
Loading historical data...
Loading historical data...

Documentation

Showing up to 5 results
|